Location: Beccas
(43.4309°N, 0.1528°E)
Time: 10:35:09
(UTC+00:00)

Cosmos 1174 - Pass Details

Date: 15 October 2021
Orbit: 373 x 1139 km, 66.1° (Epoch: 02 December)

Event Time Altitude Azimuth Distance (km) Brightness Sun altitude
Rises 17:55:26 0° 188° (S) 2,560 7.4 -7.9°
Reaches altitude 10° 17:57:53 10° 176° (S) 1,580 6.2 -8.4°
Maximum altitude 18:00:50 27° 117° (ESE) 829 4.3 -8.9°
Enters shadow 18:03:24 11° 57° (ENE) 1,386 5.3 -9.4°
